Location: Krakow
(50.0830°N, 19.9170°E)
Time: 06:40:31
(UTC+02:00)

A-11 Canister half - Pass Details

Date: 21 March 2026
Orbit: 1523 x 1684 km, 47.3° (Epoch: 18 April)

Event Time Altitude Azimuth Distance (km) Brightness Sun altitude
Rises 06:49:58 0° 209° (SSW) 4,913 11.5 10.1°
Reaches altitude 10° 06:53:29 10° 201° (SSW) 3,915 11.1 10.7°
Maximum altitude 07:02:12 36° 140° (SE) 2,405 11.0 12.0°
Drops below altitude 10° 07:10:42 10° 79° (E) 3,826 12.5 13.4°
Sets 07:14:05 0° 72° (ENE) 4,790 12.6 13.9°
